Location: Goettingen
(51.5300°N, 9.9433°E)
Time: 10:17:10
(UTC+01:00)

ISS - Pass Details

Date: 27 March 2023
Orbit: 414 x 423 km, 51.6° (Epoch: 20 March)

Event Time Altitude Azimuth Distance (km) Brightness Sun altitude
Rises 22:05:59 0° 284° (WNW) 2,359 1.3 -21.3°
Reaches altitude 10° 22:08:11 10° 274° (W) 1,493 -0.2 -21.6°
Enters shadow 22:10:34 30° 235° (SW) 781 -2.3 -21.9°
